Regional Weather Roundup
Issued by NWS

Home | Current Version | Previous Version | Graphics & Text | Print | Product List | Glossary On
Versions: 1 2 3 4 5 6 7 8 9 10 11 12 13 14 15 16 17 18 19 20 21 22 23 24 25 26 27 28 29 30 31 32 33 34 35 36 37 38 39 40 41 42 43 44 45 46 47 48 49 50
000
ASUS43 KLMK 251210
RWRKY
KENTUCKY REGIONAL WEATHER ROUNDUP
NATIONAL WEATHER SERVICE LOUISVILLE KY
800 AM EDT FRI MAY 25 2018

NOTE "FAIR" INDICATES FEW OR NO CLOUDS BELOW 12,000 FEET
WITH NO SIGNIFICANT WEATHER AND/OR OBSTRUCTIONS TO VISIBILITY.

KYZ001>023-026-027-061>063-070>075-251300-
WESTERN AND SOUTH CENTRAL KENTUCKY

CITY           SKY/WX    TMP DP  RH WIND       PRES   REMARKS
PADUCAH        FAIR      71  66  84 CALM      29.98F
HENDERSON      NOT AVBL
OWENSBORO      FAIR      69  62  78 E3        30.01S
HOPKINSVILLE   FAIR      68  67  95 CALM      30.00F
BOWLING GREEN  FAIR      69  66  90 CALM      30.03R
GLASGOW        FAIR      68  63  85 CALM      30.03S
$$

KYZ024-025-028>034-038-045-046-053-251300-
NORTH CENTRAL KENTUCKY

CITY           SKY/WX    TMP DP  RH WIND       PRES   REMARKS
LOUISVILLE/SDF FAIR      67  60  78 SE3       30.02S
LOUISVILLE/LOU FAIR      66  63  90 CALM      30.03S
FORT KNOX      FAIR      65  60  84 CALM      30.03S
$$

KYZ035>037-039>044-047>052-055>060-089>105-251300-
NORTHEAST KENTUCKY

CITY           SKY/WX    TMP DP  RH WIND       PRES   REMARKS
LEXINGTON      FAIR      67  62  84 CALM      30.05S
COVINGTON      FAIR      68  59  73 CALM      30.04S
FRANKFORT      FAIR      64  59  83 CALM      30.03S
$$

KYZ054-064>069-076>088-106>120-251300-
SOUTHEAST KENTUCKY

CITY           SKY/WX    TMP DP  RH WIND       PRES   REMARKS
JACKSON        FAIR      70  62  76 CALM      30.07S
LONDON         FAIR      69  65  86 CALM      30.07R
SOMERSET       FAIR      68  68 100 MISG      30.07S
MIDDLESBORO    FAIR      69  68  98 CALM      30.10S
MONTICELLO     FAIR      72  68  87 NE7       30.07S
$$





USA.gov is the U.S. government's official web portal to all federal, state and local government web resources and services.